Overview Statistics Trail Chart Weather Telemetry Raw packets
 

This is the latest recevied weather packets stored in our database for station/object W5GMO. If no packets are shown the sender has not sent any weather packets the latest 10 day(s).

<< 95 96 97 98 99 100 101 >>
Time Temp. Humidity Pressure Rain* Wind** Luminosity Snow
1787928908 28.89° C 1% 1017.4 hPa 0 mm - 603 W/m² -
1787928609 28.89° C 1% 1017.3 hPa 0 mm - 589 W/m² -
1787928307 28.89° C 1% 1017.3 hPa 0 mm - 574 W/m² -
1787928006 28.33° C 1% 1017.3 hPa 0 mm - 582 W/m² -
1787927700 28.33° C 1% 1017.3 hPa 0 mm - 569 W/m² -
1787927400 27.78° C 1% 1017.3 hPa 0 mm - 573 W/m² -
1787927096 27.78° C 1% 1017.2 hPa 0 mm - 591 W/m² -
1787926791 27.78° C 1% 1017.1 hPa 0 mm - 593 W/m² -
1787926490 26.67° C 1% 1017.1 hPa 0 mm - 440 W/m² -
1787926189 26.11° C 1% 1017 hPa 0 mm - 429 W/m² -
1787925889 26.11° C 1% 1017.1 hPa 0 mm - 295 W/m² -
1787925588 25.56° C 1% 1017.1 hPa 0 mm - 364 W/m² -
1787925284 25.56° C 1% 1016.8 hPa 0 mm - 161 W/m² -
1787924985 25.56° C 1% 1017 hPa 0 mm - 105 W/m² -
1787924677 25.56° C 1% 1016.8 hPa 0 mm - 96 W/m² -
1787924372 26.11° C 1% 1016.7 hPa 0 mm - 152 W/m² -
1787924068 26.67° C 1% 1016.6 hPa 0 mm - 237 W/m² -
1787923768 26.67° C 1% 1016.6 hPa 0 mm - 323 W/m² -
1787923463 26.11° C 1% 1016.3 hPa 0 mm - 352 W/m² -
1787923158 26.11° C 1% 1016.4 hPa 0 mm - 452 W/m² -
1787922853 26.11° C 1% 1016.2 hPa 0 mm - 334 W/m² -
1787922553 26.11° C 1% 1016.2 hPa 0 mm - 301 W/m² -
1787922252 25° C 1% 1016 hPa 0 mm - 389 W/m² -
1787921949 25° C 1% 1016 hPa 0 mm - 379 W/m² -
1787921644 25.56° C 1% 1016 hPa 0 mm - 344 W/m² -

* Rain latest hour (hover to see other rain measurements)
** Current wind speed in m/s (hover to see current wind gust speed)